Hourly Data Report for June 01, 2003

SHERBROOKE A
QUEBEC

45°26'00.000" N
71°41'00.000" W
241.40 m
7028124
71610
YSC

Download Data

Hourly Data (June 2003)
Hourly Data Report for June 1, 2003
TIME
LST
Temp Definition
°C
Dew Point Definition
°C
Rel Hum Definition
%
Precip. Amount Definition
mm

Wind Dir Definition
10's deg

Wind Spd Definition
km/h
Visibility Definition
km
Stn Press Definition
kPa
Hmdx Definition


Wind Chill Definition


Weather Definition


00:00 13.5 10.0 79   4 9 11.3 97.57     Rain
01:00 12.2 11.0 92   6 6 12.9 97.58     Rain
02:00 11.8 11.0 95   5 6 15.0 97.55     Rain
03:00 11.8 11.3 97   5 9 15.0 97.51     Rain
04:00 11.8 11.2 96   5 7 15.0 97.51     Rain
05:00 11.9 11.3 96   4 7 15.0 97.51     Rain
06:00 11.9 11.4 97   3 15 11.3 97.53     Rain
07:00 12.2 11.6 96   3 15 19.3 97.52     Rain
08:00 12.6 12.1 97   2 9 19.3 97.47     Rain
09:00 12.8 11.9 94   4 15 19.3 97.42     Cloudy
10:00 12.8 11.9 94   3 15 24.1 97.43     Cloudy
11:00 13.1 12.3 95   1 13 9.7 97.42     Rain, Fog
12:00 13.3 12.5 95   2 13 16.1 97.37     Rain
13:00 13.8 12.9 94   1 13 19.3 97.31     Rain
14:00 13.2 12.1 93   36 7 19.3 97.29     Rain
15:00 12.4 11.4 94   34 9 19.3 97.29     Rain
16:00 11.1 10.2 94   33 11 19.3 97.29     Rain
17:00 10.0 9.3 95   31 11 9.7 97.30     Rain
18:00 9.4 8.4 93   34 7 11.3 97.35     Rain
19:00 9.3 8.2 93   33 9 15.0 97.42     Rain
20:00 9.0 8.4 96   30 9 15.0 97.44     Rain
21:00 8.4 7.9 97   30 11 15.0 97.49     Rain
22:00 7.8 7.5 98   28 15 15.0 97.51     Rain
23:00 7.2 6.8 97   28 15 11.3 97.51     Rain

Notes on Data Quality.

Legend

  • E = Estimated
  • M = Missing
  • NA = Not Available*
  • [empty] = Indicates an unobserved value
Date modified: